Location: Arbon
(43.0005°N, 0.7472°E)
Time: 10:52:32
(UTC+00:00)

Cosmos 2218 Rocket - Pass Details

Date: 22 April 2026
Orbit: 956 x 1004 km, 82.9° (Epoch: 20 May)

Event Time Altitude Azimuth Distance (km) Brightness Sun altitude
Rises 19:38:48 0° 189° (S) 3,620 6.8 -9.5°
Reaches altitude 10° 19:41:17 10° 191° (S) 2,677 6.1 -9.9°
Maximum altitude 19:47:24 79° 278° (W) 979 4.2 -10.9°
Drops below altitude 10° 19:53:36 10° 5° (N) 2,705 6.7 -11.9°
Sets 19:56:07 0° 7° (N) 3,661 7.3 -12.3°
